TimeEST,TemperatureF,Dew PointF,Humidity,Sea Level PressureIn,VisibilityMPH,Wind Direction,Wind SpeedMPH,Gust SpeedMPH,PrecipitationIn,Events,Conditions,WindDirDegrees,DateUTC
12:53 AM,34.0,21.0,59,30.26,10.0,WNW,3.5,-,N/A,,Overcast,290,2012-11-27 05:53:00
1:53 AM,34.0,21.0,59,30.26,10.0,WNW,5.8,-,N/A,,Overcast,290,2012-11-27 06:53:00
2:53 AM,34.0,21.0,59,30.26,10.0,West,3.5,-,N/A,,Overcast,270,2012-11-27 07:53:00
3:53 AM,32.0,24.1,73,30.25,10.0,South,3.5,-,N/A,,Overcast,180,2012-11-27 08:53:00
4:53 AM,33.1,23.0,66,30.25,10.0,Calm,Calm,-,N/A,,Overcast,0,2012-11-27 09:53:00
5:53 AM,33.1,24.1,70,30.25,10.0,Calm,Calm,-,N/A,,Overcast,0,2012-11-27 10:53:00
6:53 AM,33.1,24.1,70,30.26,10.0,North,6.9,-,N/A,,Overcast,350,2012-11-27 11:53:00
7:44 AM,33.8,24.8,70,30.26,10.0,North,8.1,-,N/A,,Overcast,350,2012-11-27 12:44:00
7:53 AM,34.0,24.1,67,30.28,10.0,NW,5.8,-,N/A,,Overcast,320,2012-11-27 12:53:00
8:53 AM,34.0,24.1,67,30.30,10.0,NNW,5.8,-,N/A,,Overcast,330,2012-11-27 13:53:00
9:53 AM,35.1,23.0,61,30.32,10.0,NNW,5.8,-,N/A,,Overcast,330,2012-11-27 14:53:00
10:53 AM,35.1,24.1,64,30.32,10.0,North,8.1,-,N/A,,Overcast,350,2012-11-27 15:53:00
11:53 AM,35.1,23.0,61,30.31,10.0,North,5.8,-,N/A,,Overcast,360,2012-11-27 16:53:00
12:53 PM,35.1,23.0,61,30.30,10.0,North,5.8,-,N/A,,Overcast,350,2012-11-27 17:53:00
1:53 PM,35.1,21.0,57,30.29,10.0,West,4.6,-,N/A,,Overcast,280,2012-11-27 18:53:00
2:53 PM,35.1,21.0,57,30.29,10.0,WNW,6.9,-,N/A,,Overcast,300,2012-11-27 19:53:00
3:53 PM,35.1,19.9,54,30.29,10.0,West,3.5,-,N/A,,Overcast,280,2012-11-27 20:53:00
4:53 PM,34.0,21.0,59,30.28,10.0,Calm,Calm,-,N/A,,Overcast,0,2012-11-27 21:53:00
5:53 PM,34.0,21.9,61,30.28,10.0,Calm,Calm,-,N/A,,Overcast,0,2012-11-27 22:53:00
6:53 PM,34.0,21.9,61,30.29,10.0,South,5.8,-,N/A,,Overcast,190,2012-11-27 23:53:00
7:53 PM,33.1,23.0,66,30.30,10.0,South,5.8,-,N/A,,Overcast,180,2012-11-28 00:53:00
8:53 PM,33.1,23.0,66,30.28,10.0,South,3.5,-,N/A,,Overcast,170,2012-11-28 01:53:00
9:53 PM,33.1,23.0,66,30.28,10.0,SSW,4.6,-,N/A,,Overcast,200,2012-11-28 02:53:00
10:53 PM,33.1,23.0,66,30.27,10.0,South,5.8,-,N/A,,Overcast,190,2012-11-28 03:53:00
11:53 PM,34.0,23.0,64,30.26,10.0,SW,10.4,-,N/A,,Overcast,220,2012-11-28 04:53:00